Location: Csohesd
(46.2500°N, 22.6167°E)
Time: 03:05:19
(UTC+00:00)

ARGOS - Pass Details

Date: 21 October 2021
Orbit: 820 x 835 km, 98.4° (Epoch: 30 November)

Event Time Altitude Azimuth Distance (km) Brightness Sun altitude
Rises 15:54:57 0° 136° (SE) 3,359 6.0 -4.6°
Reaches altitude 10° 15:57:29 10° 127° (SE) 2,432 5.2 -5.0°
Maximum altitude 16:02:15 33° 65° (ENE) 1,366 3.8 -5.9°
Drops below altitude 10° 16:07:03 10° 3° (N) 2,454 5.5 -6.7°
Sets 16:09:36 0° 354° (N) 3,393 6.3 -7.1°
